パンスターズ彗星

C/2020 S4 ( PanSTARRS )

English version
Home page
Updated on July 24, 2022

---------------------------------------------------------------------

・ プロフィール

発見日 2020年9月16日
発見光度 21.3等
発見者 Pan-STARRS 1 telescope (Haleakala)

・ 写真集

・ 軌道要素

Epoch 2022 Jan. 21.0 TT = JDT 2459600.5
T 2023 Feb.  9.34861 TT                                 Rudenko
q   3.3694123            (2000.0)            P               Q
z  -0.0001262      Peri.   21.01183     -0.73139077     -0.60687787
 +/-0.0000072      Node   117.72028     +0.56479271     -0.79468873
e   1.0004251      Incl.   20.57326     +0.38219987     +0.01300244
From 446 observations 2020 Sept. 16-2022 Jan. 31, mean residual 0".5.

・ 星図

・ 光度変化

        m1 = 6.8 + 5 logΔ + 10.0 log r

---------------------------------------------------------------------

軌道要素はM.P.E.C. 2022-C56に掲載されたものです。
星図はステラナビゲータ Ver.10 (アストロアーツ) で作成したものです。
光度グラフはComet for Windowsで作成したものです。

---------------------------------------------------------------------

Copyright(C) Seiichi Yoshida (comet@aerith.net). All rights reserved.